Погода в Каменном

Россия / Архангельская область     61°46′51″N   44°48′49″E
темп.,
°C
ветер,
м/с
пор.,
м/с
влажн.,
%
обл.,
%
осадки,
мм/ч
давл.,
гПа
погр.,
м
15 августа, пн
пн1500:00+12ююз246836 0.0 102362
03:00+11ююз25767 0.0 102385
06:00+13юз26725 0.0 1023149
09:00+20зюз23505 0.0 1023543
12:00+24з24400 0.0 10231564
15:00+25зсз34387 0.0 10232102
18:00+23сз115514 0.0 102330
21:00+17сз007524 0.0 102411
16 августа, вт
вт1600:00+15юв11825 0.0 102511
03:00+14ю11867 0.0 102610
06:00+16ююз127657 0.0 102659
09:00+23ююз125375 0.0 1026476
12:00+26ююз224238 0.0 10251763
15:00+26зюз2341100 0.0 10241864
18:00+24ююз115788 0.0 102413
21:00+20юз246897 0.0 102482
17 августа, ср
ср1700:00+19юз237398 0.0 102458
03:00+18зюз127819 0.0 102431
06:00+17юз238527 0.1 1024100
09:00+24юз11605 0.1 1024522
12:00+27юз22455 0.0 10231828
15:00+25юз2350100 0.0 1022686
18:00+23юз126491 0.0 102238
21:00+20ююв1169100 0.1 102320
18 августа, чт
чт1800:00+20юз2265100 0.0 102342
03:00+19юз2467100 0.1 102484
06:00+19юз126892 0.0 102467
09:00+22ююз125741 0.0 1024279
12:00+27ююз233650 0.0 10242402
15:00+26ююз244163 0.0 10241007
18:00+24ююв245152 0.0 1024133
21:00+20ю256081 0.0 102585
19 августа, пт
пт1900:00+20ююз246724 0.0 102683
03:00+17ююз247510 0.0 102672
06:00+18ююз277362 0.0 1027143
09:00+24юз345010 0.0 1027461
12:00+28юз35388 0.0 10272227
15:00+28зюз34361 0.0 10262352
18:00+25юз23528 0.0 102680
21:00+21ююз266293 0.0 1026110